This is the latest recevied weather packets stored in our database for station/object DG9BJA-13. If no packets are shown the sender has not sent any weather packets the latest 10 day(s).
| Time | Temp. | Humidity | Pressure | Rain* | Wind** | Luminosity | Snow |
|---|---|---|---|---|---|---|---|
| 1776938776 | 12.78° C | 59% | 1028.2 hPa | 0 mm | - | 733 W/m² | - |
| 1776938177 | 12.22° C | 61% | 1028.3 hPa | 0 mm | - | 722 W/m² | - |
| 1776937576 | 11.67° C | 65% | 1028.2 hPa | 0 mm | - | 684 W/m² | - |
| 1776936976 | 11.11° C | 68% | 1028.5 hPa | 0 mm | - | 700 W/m² | - |
| 1776936376 | 10.56° C | 70% | 1028.7 hPa | 0 mm | - | 682 W/m² | - |
| 1776935776 | 10.56° C | 70% | 1028.7 hPa | 0 mm | - | 664 W/m² | - |
| 1776935176 | 10° C | 72% | 1028.7 hPa | 0 mm | - | 654 W/m² | - |
| 1776934576 | 10° C | 73% | 1028.7 hPa | 0 mm | - | 626 W/m² | - |
| 1776933976 | 9.44° C | 75% | 1028.7 hPa | 0 mm | - | 606 W/m² | - |
| 1776933376 | 8.89° C | 77% | 1028.8 hPa | 0 mm | - | 587 W/m² | - |
| 1776932776 | 8.33° C | 77% | 1028.8 hPa | 0 mm | - | 563 W/m² | - |
| 1776932176 | 8.33° C | 78% | 1028.8 hPa | 0 mm | - | 540 W/m² | - |
| 1776931576 | 7.78° C | 79% | 1029.1 hPa | 0 mm | - | 517 W/m² | - |
| 1776930976 | 7.78° C | 80% | 1028.9 hPa | 0 mm | - | 487 W/m² | - |
| 1776930376 | 7.22° C | 82% | 1028.9 hPa | 0 mm | - | 464 W/m² | - |
| 1776929776 | 6.67° C | 83% | 1028.9 hPa | 0 mm | - | 443 W/m² | - |
| 1776929176 | 6.11° C | 85% | 1028.8 hPa | 0 mm | - | 446 W/m² | - |
| 1776928576 | 5.56° C | 86% | 1028.8 hPa | 0 mm | - | 431 W/m² | - |
| 1776927976 | 5.56° C | 86% | 1028.7 hPa | 0 mm | - | 160 W/m² | - |
| 1776927376 | 5° C | 87% | 1028.7 hPa | 0 mm | - | 339 W/m² | - |
| 1776926776 | 5° C | 87% | 1028.7 hPa | 0 mm | - | 211 W/m² | - |
| 1776926176 | 4.44° C | 88% | 1028.8 hPa | 0 mm | - | 134 W/m² | - |
| 1776925576 | 4.44° C | 88% | 1028.7 hPa | 0 mm | - | 120 W/m² | - |
| 1776924975 | 3.89° C | 89% | 1028.7 hPa | 0 mm | - | 134 W/m² | - |
| 1776924375 | 3.89° C | 89% | 1028.7 hPa | 0 mm | - | 100 W/m² | - |
* Rain latest hour (hover to see other rain measurements)
** Current wind speed in m/s (hover to see current wind gust speed)